KD9DOE Weather Reports


Display with metric or nautical units.
time (UTC)temp
F
wind
direction
speed
MPH
gust
MPH
rain 1hr
in
rain 24hr
in
rain mn
in
humidity
%
barometer
mb
20260504000439 70 288 1.0 1.0 0.00 0.00 0.00 33 1003.7
20260503235936 70 326 2.0 2.0 0.00 0.00 0.00 32 1003.6
20260503235434 70 24 1.0 2.0 0.00 0.00 0.00 32 1003.7
20260503234931 71 156 1.0 2.0 0.00 0.00 0.00 33 1003.5
20260503234429 71 267 0.0 0.0 0.00 0.00 0.00 32 1003.7
20260503233927 71 331 2.0 2.0 0.00 0.00 0.00 32 1003.7
20260503233423 72 229 0.0 1.0 0.00 0.00 0.00 32 1003.6
20260503232919 72 291 1.0 1.0 0.00 0.00 0.00 32 1003.8
20260503232416 72 208 3.0 4.0 0.00 0.00 0.00 32 1003.6
20260503231914 71 239 4.0 4.0 0.00 0.00 0.00 32 1003.7
20260503231411 71 183 1.0 1.0 0.00 0.00 0.00 33 1003.8
20260503230907 72 119 1.0 2.0 0.00 0.00 0.00 33 1003.8
20260503230404 73 11 2.0 2.0 0.00 0.00 0.00 32 1003.9
20260503225902 73 28 2.0 2.0 0.00 0.00 0.00 31 1003.8
20260503225357 72 258 1.0 2.0 0.00 0.00 0.00 32 1003.9
20260503224854 72 337 3.0 3.0 0.00 0.00 0.00 32 1003.9
20260503224351 72 243 1.0 1.0 0.00 0.00 0.00 33 1004.0
20260503223849 72 280 2.0 3.0 0.00 0.00 0.00 33 1004.1
20260503223347 72 251 3.0 4.0 0.00 0.00 0.00 33 1004.0
20260503222842 72 40 2.0 3.0 0.00 0.00 0.00 33 1004.1
20260503222341 72 309 0.0 0.0 0.00 0.00 0.00 33 1004.0
20260503221838 72 336 2.0 2.0 0.00 0.00 0.00 33 1004.1
20260503221337 71 78 0.0 0.0 0.00 0.00 0.00 35 1004.0
20260503220832 71 131 1.0 1.0 0.00 0.00 0.00 35 1004.3
20260503220329 71 168 2.0 2.0 0.00 0.00 0.00 34 1004.1
20260503215826 71 336 0.0 2.0 0.00 0.00 0.00 35 1004.2
20260503215323 71 14 1.0 1.0 0.00 0.00 0.00 35 1004.1
20260503214821 71 308 1.0 2.0 0.00 0.00 0.00 35 1004.2
20260503214318 71 121 1.0 1.0 0.00 0.00 0.00 35 1004.3
20260503213816 70 233 1.0 2.0 0.00 0.00 0.00 35 1004.3
20260503213313 70 314 2.0 3.0 0.00 0.00 0.00 35 1004.1
20260503212810 70 302 2.0 2.0 0.00 0.00 0.00 34 1004.6
20260503212308 70 183 4.0 6.0 0.00 0.00 0.00 35 1004.4
20260503211805 70 261 2.0 2.0 0.00 0.00 0.00 36 1004.4
20260503211302 70 149 2.0 3.0 0.00 0.00 0.00 36 1004.4
20260503210801 70 124 1.0 2.0 0.00 0.00 0.00 36 1004.4
20260503210259 70 251 3.0 4.0 0.00 0.00 0.00 35 1004.5
20260503205754 70 179 4.0 8.0 0.00 0.00 0.00 35 1004.6
20260503205251 69 345 1.0 1.0 0.00 0.00 0.00 36 1004.5
20260503204747 69 310 4.0 6.0 0.00 0.00 0.00 36 1004.5
20260503204245 69 302 4.0 6.0 0.00 0.00 0.00 37 1004.8
20260503203742 69 309 4.0 4.0 0.00 0.00 0.00 36 1005.0
20260503203240 69 241 2.0 2.0 0.00 0.00 0.00 37 1004.8
20260503202737 69 300 2.0 3.0 0.00 0.00 0.00 36 1004.9
20260503202234 68 327 2.0 3.0 0.00 0.00 0.00 37 1005.1
20260503201732 69 310 5.0 9.0 0.00 0.00 0.00 35 1005.2
20260503201230 69 321 3.0 3.0 0.00 0.00 0.00 35 1005.2
20260503200726 70 160 4.0 7.0 0.00 0.00 0.00 35 1005.2
20260503200222 69 222 1.0 1.0 0.00 0.00 0.00 37 1005.2
20260503195719 69 169 2.0 3.0 0.00 0.00 0.00 36 1005.3
20260503195216 69 144 2.0 3.0 0.00 0.00 0.00 36 1005.5
20260503194713 70 251 2.0 3.0 0.00 0.00 0.00 35 1005.5
20260503194209 69 169 2.0 2.0 0.00 0.00 0.00 35 1005.5
20260503193705 69 151 5.0 9.0 0.00 0.00 0.00 36 1005.6
20260503193201 69 340 3.0 6.0 0.00 0.00 0.00 35 1005.7
20260503192657 69 14 2.0 3.0 0.00 0.00 0.00 36 1005.8
20260503192153 69 294 2.0 2.0 0.00 0.00 0.00 34 1006.0
20260503191649 68 17 1.0 1.0 0.00 0.00 0.00 36 1005.9
20260503191147 67 345 1.0 1.0 0.00 0.00 0.00 36 1006.0
20260503190643 67 333 3.0 3.0 0.00 0.00 0.00 35 1005.8
20260503190140 68 214 2.0 3.0 0.00 0.00 0.00 35 1006.0
20260503185637 68 277 1.0 2.0 0.00 0.00 0.00 36 1006.3
20260503185132 67 4 2.0 2.0 0.00 0.00 0.00 37 1006.2
20260503184627 67 217 4.0 4.0 0.00 0.00 0.00 36 1006.2
20260503184124 67 330 1.0 2.0 0.00 0.00 0.00 37 1006.3
20260503183621 67 163 1.0 1.0 0.00 0.00 0.00 38 1006.0
20260503183118 67 345 4.0 4.0 0.00 0.00 0.00 37 1006.5
20260503182617 67 308 3.0 4.0 0.00 0.00 0.00 36 1006.3
20260503182114 67 320 4.0 7.0 0.00 0.00 0.00 37 1006.3
20260503181611 67 94 5.0 7.0 0.00 0.00 0.00 36 1006.8
20260503181108 67 286 3.0 4.0 0.00 0.00 0.00 37 1006.5
20260503180605 67 175 4.0 6.0 0.00 0.00 0.00 38 1006.5
20260503180103 66 219 1.0 2.0 0.00 0.00 0.00 42 1006.5
20260503175559 66 7 3.0 4.0 0.00 0.00 0.00 41 1006.9
20260503175056 65 39 3.0 4.0 0.00 0.00 0.00 42 1006.8
20260503174553 64 290 3.0 4.0 0.00 0.00 0.00 41 1007.0
20260503174050 64 268 3.0 4.0 0.00 0.00 0.00 42 1007.3
20260503173545 64 349 3.0 3.0 0.00 0.00 0.00 42 1007.1
20260503173041 64 333 4.0 6.0 0.00 0.00 0.00 42 1007.2
20260503172539 63 204 5.0 7.0 0.00 0.00 0.00 42 1007.1
20260503172036 63 268 3.0 4.0 0.00 0.00 0.00 42 1007.1
20260503171532 64 109 5.0 8.0 0.00 0.00 0.00 40 1007.4
20260503171030 63 31 3.0 3.0 0.00 0.00 0.00 41 1007.4
20260503170526 63 309 3.0 4.0 0.00 0.00 0.00 41 1007.4
20260503150918 57 28 3.0 6.0 0.00 0.00 0.00 57 1008.8
20260503150415 57 272 2.0 2.0 0.00 0.00 0.00 57 1008.5
20260503131308 52 198 2.0 4.0 0.00 0.00 0.00 62 1010.4
20260503130806 51 51 2.0 3.0 0.00 0.00 0.00 63 1010.3
20260503130303 51 293 3.0 4.0 0.00 0.00 0.00 63 1010.5
20260503110657 49 189 3.0 4.0 0.00 0.00 0.00 50 1010.5
20260503110154 49 330 2.0 3.0 0.00 0.00 0.00 49 1010.7
20260503100120 50 106 0.0 0.0 0.00 0.00 0.00 48 1011.0
20260503081510 48 321 2.0 2.0 0.00 0.00 0.00 50 1011.8
20260503081007 48 112 1.0 1.0 0.00 0.00 0.00 50 1011.8
20260503080503 48 64 0.0 1.0 0.00 0.00 0.00 50 1011.8
20260503072939 48 103 1.0 1.0 0.00 0.00 0.00 49 1012.0
20260503072437 48 188 3.0 3.0 0.00 0.00 0.00 49 1012.0
20260503071934 47 53 1.0 1.0 0.00 0.00 0.00 49 1012.1
20260503071431 47 186 0.0 1.0 0.00 0.00 0.00 49 1012.2
20260503070926 47 188 2.0 3.0 0.00 0.00 0.00 49 1012.3
20260503070424 48 250 0.0 0.0 0.00 0.00 0.00 48 1012.4
20260503054838 49 125 0.0 0.0 0.00 0.00 0.00 45 1012.8
20260503054333 49 127 0.0 0.0 0.00 0.00 0.00 45 1012.9
20260503053832 49 200 2.0 3.0 0.00 0.00 0.00 45 1012.9
20260503053330 49 139 2.0 2.0 0.00 0.00 0.00 45 1012.9
20260503052826 49 23 0.0 1.0 0.00 0.00 0.00 45 1012.9
20260503052323 49 120 1.0 1.0 0.00 0.00 0.00 44 1013.0
20260503051819 49 106 0.0 0.0 0.00 0.00 0.00 44 1012.9
20260503051315 49 211 0.0 1.0 0.00 0.00 0.00 44 1012.9
20260503050812 49 138 0.0 0.0 0.00 0.00 0.00 44 1013.1
20260503050308 49 213 1.0 2.0 0.00 0.00 0.00 44 1013.2
20260503045806 49 142 0.0 0.0 0.00 0.00 0.00 43 1013.2
20260503045305 49 117 0.0 0.0 0.00 0.00 0.00 44 1013.1
20260503044800 49 81 0.0 0.0 0.00 0.00 0.00 44 1013.1
20260503044257 49 208 0.0 0.0 0.00 0.00 0.00 44 1013.4
20260503043754 49 139 0.0 0.0 0.00 0.00 0.00 44 1013.3
20260503043251 49 147 0.0 0.0 0.00 0.00 0.00 45 1013.3
20260503042747 49 176 2.0 2.0 0.00 0.00 0.00 43 1013.2
20260503042244 49 134 0.0 0.0 0.00 0.00 0.00 44 1013.3
20260503041740 49 133 0.0 0.0 0.00 0.00 0.00 44 1013.8
20260503041238 49 136 0.0 0.0 0.00 0.00 0.00 43 1013.4
20260503040735 49 164 2.0 2.0 0.00 0.00 0.00 43 1013.6
20260503040233 49 178 1.0 2.0 0.00 0.00 0.00 43 1013.8
20260503035729 49 175 0.0 0.0 0.00 0.00 0.00 44 1013.8
20260503035227 49 119 0.0 0.0 0.00 0.00 0.00 44 1013.7
20260503034724 49 186 0.0 0.0 0.00 0.00 0.00 43 1013.8
20260503034221 49 107 0.0 0.0 0.00 0.00 0.00 44 1014.0
20260503033718 49 129 0.0 0.0 0.00 0.00 0.00 44 1013.9
20260503033216 49 141 0.0 0.0 0.00 0.00 0.00 44 1013.9
20260503032714 49 116 0.0 0.0 0.00 0.00 0.00 44 1014.0
20260503032212 49 103 0.0 0.0 0.00 0.00 0.00 43 1014.0
20260503031709 49 128 0.0 0.0 0.00 0.00 0.00 44 1014.0
20260503031208 49 331 0.0 0.0 0.00 0.00 0.00 43 1013.8
20260503030703 49 330 0.0 0.0 0.00 0.00 0.00 43 1014.1
20260503030159 49 330 0.0 0.0 0.00 0.00 0.00 43 1014.1
20260503025656 49 331 0.0 1.0 0.00 0.00 0.00 43 1014.2
20260503025154 49 330 0.0 0.0 0.00 0.00 0.00 44 1014.3
20260503024650 49 330 0.0 0.0 0.00 0.00 0.00 46 1014.4
20260503024148 49 330 0.0 0.0 0.00 0.00 0.00 45 1014.1
20260503023645 49 330 0.0 0.0 0.00 0.00 0.00 46 1014.2
20260503023141 49 330 0.0 0.0 0.00 0.00 0.00 47 1014.2
20260503022637 49 331 0.0 0.0 0.00 0.00 0.00 45 1014.3
20260503022132 49 331 0.0 0.0 0.00 0.00 0.00 48 1014.1
20260503021629 49 331 0.0 0.0 0.00 0.00 0.00 46 1014.2
20260503021125 49 331 0.0 0.0 0.00 0.00 0.00 47 1014.3
20260503020622 50 331 0.0 0.0 0.00 0.00 0.00 47 1014.2
20260503020120 50 331 0.0 0.0 0.00 0.00 0.00 44 1014.1
20260503015616 50 331 0.0 0.0 0.00 0.00 0.00 44 1014.1
20260503015114 51 331 0.0 0.0 0.00 0.00 0.00 43 1014.1
20260503014609 51 331 0.0 0.0 0.00 0.00 0.00 43 1014.0
20260503014107 52 331 0.0 0.0 0.00 0.00 0.00 41 1014.1
20260503013604 52 331 0.0 0.0 0.00 0.00 0.00 40 1013.9
20260503013102 53 331 0.0 0.0 0.00 0.00 0.00 37 1014.0
20260503012600 53 331 0.0 0.0 0.00 0.00 0.00 37 1013.9
20260503012056 54 331 0.0 0.0 0.00 0.00 0.00 37 1013.9
20260503011552 54 331 0.0 0.0 0.00 0.00 0.00 36 1013.8
20260503011050 54 331 0.0 0.0 0.00 0.00 0.00 35 1013.7
20260503010546 55 331 0.0 0.0 0.00 0.00 0.00 35 1013.7
20260503010043 55 331 0.0 0.0 0.00 0.00 0.00 35 1013.9
20260503005540 55 331 0.0 1.0 0.00 0.00 0.00 33 1013.7
20260503005038 55 331 0.0 1.0 0.00 0.00 0.00 33 1013.8
20260503004533 56 331 0.0 0.0 0.00 0.00 0.00 34 1013.8
20260503004032 56 331 1.0 2.0 0.00 0.00 0.00 33 1013.9
20260503003528 57 331 0.0 0.0 0.00 0.00 0.00 33 1013.8
20260503003026 57 331 1.0 1.0 0.00 0.00 0.00 31 1013.7
20260503002523 57 331 1.0 2.0 0.00 0.00 0.00 32 1014.0
20260503002019 57 331 0.0 1.0 0.00 0.00 0.00 31 1013.8
20260503001516 57 53 1.0 1.0 0.00 0.00 0.00 31 1014.0
20260503001013 58 199 0.0 1.0 0.00 0.00 0.00 32 1014.1